Showing default

GALAXY 11, 26038

Orbit data source: Space-Track

GALAXY 11, 26038 is a payload satellite owned by Panamsat (US) in GEO that was launched on Wed, 22 Dec 1999 UTC via an ARIANE 44L launch vehicle from the French Guiana (FRGUI). Payload-class satellites include a variety of spacecraft equipped with specific instruments for various scientific and technological missions. These include communications satellites like Starlink; space stations such as the ISS; scientific satellites like the Hubble; Earth observation satellites from companies like Planet Labs, Umbra, and HawkEye 360; GPS; miniature CubeSats for education and research; and military/defense satellites.

Not visible in the next 10 days
Identifier
26038, 1999-071A
Orbit
GEO
Country
Flag of USUS
Related business
Manufacturer
Hughes
Mission
Non-operational Commercial Communications
Bus & Motor
HS-702, R-4D-11-300
Mass
4,484 kg wet, ~4,400 kg dry
Launch date (UTC)
1999-12-22 (26 years ago)
Launch vehicle
ARIANE 44L
Launch site
French Guiana (FRGUI)
Object type
Payload
Rocket body
Debris
Shape & HBR
Box + 2 Pan, 17.0 m
Radar Cross Section
53.041 m², Large (>1 m²)

Expand to show TLE details & history
Last TLE update: 11 hours ago

TLE from 11 hours ago
0 GALAXY 11
1 26038U 99071A   25311.04142228 -.00000008  00000-0  00000+0 0  9998
2 26038   6.1786  73.2809 0005056 300.9502  76.1236  0.99022713 94813
Epoch: 2025-11-07T00:59Z
TLE epoch observation values (Epoch: 2025-11-07T00:59:38.884Z)
Latitude
1.82432°
Longitude
28.88505°
Altitude
36,134.444 km
Speed
3.062 km/s
True Right ascension
06h 01m 09s
True Declination
1° 49' 21"
Sunlit
Object was in daylight at epoch
Visualization orbit readout
Latitude
Unknown
Longitude
Unknown
Altitude
Unknown
Speed
Unknown
Apparent Right ascension
Unknown
Apparent Declination
Unknown
Sunlit
N/A
Visualization observer readout
Local Sidereal Time
07:52:07
Azimuth
Unknown
Elevation
Unknown
Doppler factor
Unknown
Orbital elements
Apogee altitude
36,162.973 km
Perigee altitude
36,119.977 km
Semi-major axis
42,519.612 km
Eccentricity
0.00051
Inclination
6.1786°
RAAN
73.2809°
Arg. of periapsis
300.9502°
True anomaly
76.17986°
Mean anomaly
76.1236°
Eccentric anomaly
76.15173°
Mean motion
0.24755 °/min
Orbital period
1,454.26 mins
BSTAR
0
Loading maneuver chart data...
Computing Atmospheric mass density...
Loading historical data...
Loading historical data...
Loading historical data...
Loading historical data...
Loading historical data...
Loading historical data...
Loading historical data...
Other satellites on launch #71 in the year 1999 (1999-12-22 UTC)

Documentation

Showing up to 5 results
|